TimeEST,TemperatureF,Dew PointF,Humidity,Sea Level PressureIn,VisibilityMPH,Wind Direction,Wind SpeedMPH,Gust SpeedMPH,PrecipitationIn,Events,Conditions,WindDirDegrees,DateUTC
12:58 AM,59.0,55.9,90,30.22,10.0,West,5.8,-,N/A,,Clear,270,2012-01-01 05:58:00
1:58 AM,55.0,54.0,96,30.21,10.0,West,3.5,-,N/A,,Clear,270,2012-01-01 06:58:00
2:58 AM,53.1,52.0,96,30.21,10.0,WNW,3.5,-,N/A,,Clear,290,2012-01-01 07:58:00
3:58 AM,53.1,52.0,96,30.21,10.0,Calm,Calm,-,N/A,,Clear,0,2012-01-01 08:58:00
4:58 AM,53.1,52.0,96,30.22,7.0,Calm,Calm,-,N/A,,Clear,0,2012-01-01 09:58:00
5:06 AM,51.8,48.2,88,30.22,10.0,Calm,Calm,-,N/A,,Partly Cloudy,0,2012-01-01 10:06:00
5:15 AM,51.8,48.2,88,30.22,10.0,Calm,Calm,-,N/A,,Mostly Cloudy,0,2012-01-01 10:15:00
5:29 AM,51.8,50.0,94,30.23,1.8,Calm,Calm,-,N/A,,Overcast,0,2012-01-01 10:29:00
5:32 AM,51.8,50.0,94,30.23,0.8,Calm,Calm,-,N/A,,Overcast,0,2012-01-01 10:32:00
5:36 AM,51.8,50.0,94,30.23,0.5,Calm,Calm,-,N/A,Fog,Fog,0,2012-01-01 10:36:00
5:40 AM,51.8,51.8,100,30.23,0.2,Calm,Calm,-,N/A,Fog,Fog,0,2012-01-01 10:40:00
5:58 AM,52.0,51.1,97,30.24,0.5,Calm,Calm,-,N/A,Fog,Fog,0,2012-01-01 10:58:00
6:11 AM,51.8,51.8,100,30.24,0.8,Calm,Calm,-,N/A,,Overcast,0,2012-01-01 11:11:00
6:16 AM,51.8,51.8,100,30.24,1.0,Calm,Calm,-,N/A,,Overcast,0,2012-01-01 11:16:00
6:25 AM,51.8,51.8,100,30.24,1.2,Calm,Calm,-,N/A,,Overcast,0,2012-01-01 11:25:00
6:30 AM,51.8,51.8,100,30.24,1.0,WSW,3.5,-,N/A,,Overcast,250,2012-01-01 11:30:00
6:34 AM,51.8,51.8,100,30.24,0.8,Calm,Calm,-,N/A,,Overcast,0,2012-01-01 11:34:00
6:49 AM,51.8,51.8,100,30.25,0.5,Calm,Calm,-,N/A,Fog,Fog,0,2012-01-01 11:49:00
6:58 AM,52.0,52.0,100,30.25,0.5,SW,3.5,-,N/A,Fog,Fog,230,2012-01-01 11:58:00
7:13 AM,53.6,53.6,100,30.25,0.2,Calm,Calm,-,N/A,Fog,Fog,0,2012-01-01 12:13:00
7:58 AM,54.0,53.1,97,30.27,0.5,WSW,4.6,-,0.00,Fog,Fog,240,2012-01-01 12:58:00
8:09 AM,53.6,53.6,100,30.28,0.8,WSW,4.6,-,N/A,,Overcast,250,2012-01-01 13:09:00
8:13 AM,53.6,53.6,100,30.28,1.0,WSW,4.6,-,N/A,,Overcast,240,2012-01-01 13:13:00
8:21 AM,53.6,53.6,100,30.28,1.2,West,3.5,-,N/A,,Overcast,260,2012-01-01 13:21:00
8:25 AM,53.6,53.6,100,30.28,1.0,West,5.8,-,N/A,,Overcast,260,2012-01-01 13:25:00
8:28 AM,53.6,53.6,100,30.28,0.5,West,4.6,-,N/A,Fog,Fog,260,2012-01-01 13:28:00
8:54 AM,55.4,55.4,100,30.29,0.2,Calm,Calm,-,N/A,Fog,Fog,0,2012-01-01 13:54:00
8:58 AM,55.0,55.0,100,30.29,0.2,SW,4.6,-,N/A,Fog,Fog,230,2012-01-01 13:58:00
9:58 AM,59.0,59.0,100,30.29,0.8,WSW,3.5,-,N/A,,Overcast,250,2012-01-01 14:58:00
10:02 AM,60.8,59.0,94,30.29,1.2,Calm,Calm,-,N/A,,Overcast,0,2012-01-01 15:02:00
10:24 AM,60.8,60.8,100,30.29,1.2,SW,5.8,-,N/A,,Mostly Cloudy,220,2012-01-01 15:24:00
10:54 AM,64.4,60.8,88,30.28,4.0,Variable,5.8,-,N/A,,Scattered Clouds,0,2012-01-01 15:54:00
10:58 AM,64.0,61.0,90,30.28,4.0,West,5.8,-,N/A,,Scattered Clouds,260,2012-01-01 15:58:00
11:58 AM,68.0,61.0,78,30.25,10.0,WSW,8.1,-,N/A,,Scattered Clouds,250,2012-01-01 16:58:00
12:32 PM,69.8,60.8,73,30.23,10.0,WNW,10.4,-,N/A,,Mostly Cloudy,300,2012-01-01 17:32:00
12:41 PM,71.6,60.8,69,30.22,10.0,West,8.1,-,N/A,,Scattered Clouds,260,2012-01-01 17:41:00
12:58 PM,70.0,57.9,65,30.21,10.0,West,8.1,-,N/A,,Scattered Clouds,280,2012-01-01 17:58:00
1:58 PM,71.1,59.0,66,30.17,10.0,Calm,Calm,-,N/A,,Clear,0,2012-01-01 18:58:00
2:58 PM,72.0,59.0,64,30.15,10.0,West,6.9,-,N/A,,Clear,260,2012-01-01 19:58:00
3:58 PM,72.0,57.9,61,30.17,10.0,West,6.9,-,N/A,,Partly Cloudy,280,2012-01-01 20:58:00
4:58 PM,71.1,59.0,66,30.17,10.0,WNW,5.8,-,N/A,,Clear,290,2012-01-01 21:58:00
5:58 PM,68.0,59.0,73,30.18,10.0,Calm,Calm,-,N/A,,Clear,0,2012-01-01 22:58:00
6:58 PM,64.0,59.0,84,30.17,10.0,Calm,Calm,-,N/A,,Clear,0,2012-01-01 23:58:00
7:58 PM,61.0,57.0,87,30.17,10.0,SSW,3.5,-,N/A,,Clear,210,2012-01-02 00:58:00
8:58 PM,63.0,57.0,81,30.16,10.0,SW,6.9,-,N/A,,Clear,220,2012-01-02 01:58:00
9:58 PM,62.1,57.9,86,30.15,10.0,SW,6.9,-,N/A,,Clear,220,2012-01-02 02:58:00
10:58 PM,61.0,57.9,90,30.16,10.0,WSW,8.1,-,N/A,,Clear,240,2012-01-02 03:58:00
11:58 PM,61.0,57.9,90,30.14,10.0,WSW,9.2,-,N/A,,Clear,240,2012-01-02 04:58:00